Dusseldorf, Germany

6:42 AM CET on March 25, 2017 (GMT +0100)
Dusseldorf

Weather History for 10400 - June, 2013

Change the Weather History Date:

Thursday, June 6, 2013

  Actual Average Record
Temperature  
Mean Temperature 62 °F -  
Max Temperature 78 °F 70 °F - ()
Min Temperature 47 °F 52 °F - ()
Degree Days  
Heating Degree Days 2    
Growing Degree Days 12 (Base 50)    
Moisture  
Dew Point 49 °F    
Average Humidity 56    
Maximum Humidity 94    
Minimum Humidity 22    
Precipitation  
Precipitation 0.00 in - - ()
Sea Level Pressure  
Sea Level Pressure 30.10 in    
Wind  
Wind Speed 4 mph ()    
Max Wind Speed 10 mph    
Max Gust Speed 15 mph    
Visibility 8.0 miles    
Events      
T = Trace of Precipitation, MM = Missing Value Source: Averaged Metar Reports

Daily Weather History Graph

Daily Weather History Graph

Search for Another Location

Airport or City:

Trip Planner

Search our weather history database for the weather conditions in past years. The results will help you decide how hot, cold, wet, or windy it might be!

Date:

Astronomy

Jun. 06, 2013 Rise Set
Actual Time 5:19 AM CEST 9:44 PM CEST
Civil Twilight 4:33 AM CEST 10:30 PM CEST
Nautical Twilight 3:24 AM CEST 11:39 PM CEST
Astronomical Twilight 2:03 AM CEST 12:59 AM CEST
Moon 4:04 AM CEST (6/6) 7:40 PM CEST (6/6)
Length of Visible Light 17h 57m
Length of Day
16h 25m
Waning Crescent, 5% of the Moon is Illuminated
Jun 6
Waning Crescent
Jun 8
New
Jun 16
First Quarter
Jun 23
Full
Jun 30
Last Quarter

Hourly Weather History & Observations

Time (CEST) Temp. Dew Point Humidity Pressure Visibility Wind Dir Wind Speed Gust Speed Precip Events Conditions
12:00 AM 58 °F 52 °F 76% 30.08 in 31 mi NE 4.5 mph - -   Clear
12:20 AM 57.2 °F 50.0 °F 77% 30.06 in - NE 5.8 mph - N/A   Clear
12:50 AM 57.2 °F 51.8 °F 82% 30.06 in - East 4.6 mph - N/A   Clear
1:00 AM 57 °F 52 °F 76% 30.09 in 31 mi East 2.2 mph - -   Scattered Clouds
1:20 AM 57.2 °F 51.8 °F 82% 30.09 in - NE 5.8 mph - N/A   Clear
1:50 AM 55.4 °F 51.8 °F 88% 30.09 in - NNE 2.3 mph - N/A   Clear
2:00 AM 54 °F 52 °F 90% 30.10 in 31 mi East 4.5 mph - -   Scattered Clouds
2:20 AM 55.4 °F 51.8 °F 88% 30.09 in - NE 2.3 mph - N/A   Clear
2:50 AM 53.6 °F 50.0 °F 88% 30.09 in - Variable 2.3 mph - N/A   Clear
3:00 AM 52 °F 50 °F 92% 30.10 in 31 mi East 2.2 mph - -   Scattered Clouds
3:20 AM 51.8 °F 50.0 °F 94% 30.09 in - ESE 3.5 mph - N/A   Clear
3:50 AM 51.8 °F 48.2 °F 88% 30.09 in - ENE 4.6 mph - N/A   Clear
4:00 AM 51 °F 48 °F 85% 30.10 in 31 mi ENE 4.5 mph - -   Scattered Clouds
4:20 AM 51.8 °F 48.2 °F 88% 30.09 in - East 3.5 mph - N/A   Clear
4:50 AM 51.8 °F 48.2 °F 88% 30.09 in - ESE 3.5 mph - N/A   Clear
5:20 AM 50.0 °F 48.2 °F 94% 30.09 in - SE 3.5 mph - N/A   Clear
5:50 AM 50.0 °F 46.4 °F 87% 30.09 in - ENE 5.8 mph - N/A   Clear
6:00 AM 49 °F 47 °F 92% 30.11 in 31 mi NE 4.5 mph - -   Scattered Clouds
6:20 AM 50.0 °F 46.4 °F 87% 30.09 in - ENE 4.6 mph - N/A   Clear
6:50 AM 51.8 °F 48.2 °F 88% 30.09 in - NE 3.5 mph - N/A   Clear
7:00 AM 52 °F 48 °F 82% 30.11 in 34 mi NNE 2.2 mph - -   Partly Cloudy
7:20 AM 53.6 °F 48.2 °F 82% 30.09 in 6.2 mi NE 4.6 mph - N/A   Partly Cloudy
7:50 AM 55.4 °F 51.8 °F 88% 30.09 in 6.2 mi NE 4.6 mph - N/A   Partly Cloudy
8:00 AM 57 °F 51 °F 73% 30.12 in 34 mi NE 2.2 mph - -   Scattered Clouds
8:20 AM 60.8 °F 50.0 °F 68% 30.12 in 6.2 mi NNE 3.5 mph - N/A   Scattered Clouds
8:50 AM 64.4 °F 50.0 °F 59% 30.12 in 6.2 mi NE 3.5 mph - N/A   Scattered Clouds
9:00 AM 64 °F 48 °F 46% 30.13 in 31 mi NE 4.5 mph - -   Partly Cloudy
9:20 AM 64.4 °F 50.0 °F 59% 30.12 in 6.2 mi NNE 4.6 mph - N/A   Scattered Clouds
9:50 AM 68.0 °F 51.8 °F 56% 30.12 in 6.2 mi Variable 3.5 mph - N/A   Scattered Clouds
10:00 AM 69 °F 52 °F 43% 30.13 in 31 mi ESE 4.5 mph - -   Partly Cloudy
10:20 AM 69.8 °F 50.0 °F 49% 30.12 in 6.2 mi ESE 5.8 mph - N/A   Scattered Clouds
10:50 AM 71.6 °F 50.0 °F 46% 30.12 in 6.2 mi Variable 3.5 mph - N/A   Partly Cloudy
11:20 AM 73.4 °F 51.8 °F 47% 30.12 in 6.2 mi East 4.6 mph - N/A   Partly Cloudy
11:50 AM 73.4 °F 51.8 °F 47% 30.12 in - East 4.6 mph - N/A   Clear
12:00 PM 74 °F 50 °F 32% 30.12 in 31 mi WNW 2.2 mph - -   Scattered Clouds
12:20 PM 75.2 °F 51.8 °F 44% 30.09 in - East 5.8 mph - N/A   Clear
12:50 PM 77.0 °F 50.0 °F 39% 30.12 in - Variable 3.5 mph - N/A   Clear
1:00 PM 76 °F 49 °F 28% 30.12 in 31 mi SE 6.7 mph - -   Scattered Clouds
1:20 PM 77.0 °F 51.8 °F 41% 30.12 in - East 3.5 mph - N/A   Clear
1:50 PM 75.2 °F 50.0 °F 41% 30.12 in - North 6.9 mph - N/A   Clear
2:00 PM 74 °F 48 °F 29% 30.12 in 31 mi NNE 6.7 mph - -   Partly Cloudy
2:20 PM 75.2 °F 50.0 °F 41% 30.12 in - North 5.8 mph - N/A   Clear
2:50 PM 77.0 °F 46.4 °F 34% 30.09 in - North 5.8 mph - N/A   Clear
3:00 PM 78 °F 46 °F 22% 30.12 in 31 mi NNE 6.7 mph - -   Scattered Clouds
3:20 PM 77.0 °F 50.0 °F 39% 30.09 in - Variable 3.5 mph 15.0 mph N/A   Clear
3:50 PM 78.8 °F 46.4 °F 32% 30.09 in - NNW 4.6 mph - N/A   Clear
4:00 PM 78 °F 46 °F 22% 30.11 in 31 mi North 6.7 mph - -   Scattered Clouds
4:20 PM 78.8 °F 44.6 °F 30% 30.09 in - North 6.9 mph - N/A   Clear
4:50 PM 78.8 °F 48.2 °F 34% 30.09 in - ENE 10.4 mph - N/A   Clear
5:20 PM 78.8 °F 48.2 °F 34% 30.09 in - NNE 6.9 mph - N/A   Clear
5:50 PM 77.0 °F 48.2 °F 36% 30.09 in - North 8.1 mph - N/A   Clear
6:00 PM 77 °F 47 °F 24% 30.09 in 31 mi NE 6.7 mph - -   Scattered Clouds
6:20 PM 77.0 °F 46.4 °F 34% 30.09 in - NNE 6.9 mph - N/A   Clear
6:50 PM 77.0 °F 46.4 °F 34% 30.09 in - NNE 8.1 mph - N/A   Clear
7:00 PM 76 °F 46 °F 24% 30.09 in 31 mi NE 6.7 mph - -   Scattered Clouds
7:20 PM 77.0 °F 48.2 °F 36% 30.09 in - NNE 8.1 mph - N/A   Clear
7:50 PM 75.2 °F 44.6 °F 34% 30.09 in - NNE 8.1 mph - N/A   Clear
8:00 PM 74 °F 46 °F 26% 30.10 in 31 mi NE 8.9 mph - -   Clear
8:20 PM 73.4 °F 46.4 °F 38% 30.09 in - NE 9.2 mph - N/A   Clear
8:50 PM 71.6 °F 46.4 °F 41% 30.09 in - NE 8.1 mph - N/A   Clear
9:00 PM 72 °F 47 °F 29% 30.11 in 16 mi NE 6.7 mph - -   Clear
9:20 PM 69.8 °F 46.4 °F 43% 30.09 in - NE 6.9 mph - N/A   Clear
9:50 PM 68.0 °F 46.4 °F 46% 30.09 in - NE 8.1 mph - N/A   Clear
10:00 PM 68 °F 46 °F 35% 30.12 in 16 mi NE 6.7 mph - -   Scattered Clouds
10:20 PM 68.0 °F 46.4 °F 46% 30.12 in - NNE 5.8 mph - N/A   Clear
10:50 PM 64.4 °F 48.2 °F 56% 30.12 in - NNE 5.8 mph - N/A   Clear
11:20 PM 60.8 °F 48.2 °F 63% 30.12 in - NE 5.8 mph - N/A   Clear
11:50 PM 60.8 °F 48.2 °F 63% 30.12 in - NNE 4.6 mph - N/A   Clear